Andrews, NC

11:51 AM EDT on July 24, 2017 (GMT -0400)
Andrews

Weather History for KRHP - January, 2013

Change the Weather History Date:

Wednesday, January 30, 2013

  Actual Average (KMMI) Record (KMMI)
Temperature  
Mean Temperature 52 °F -  
Max Temperature 66 °F 51 °F 62 °F (2016)
Min Temperature 39 °F 25 °F -2 °F (2014)
Degree Days  
Heating Degree Days 12    
Growing Degree Days 2 (Base 50)    
Moisture  
Dew Point 53 °F    
Average Humidity 86    
Maximum Humidity 97    
Minimum Humidity 72    
Precipitation  
Precipitation 1.83 in - - ()
Sea Level Pressure  
Sea Level Pressure 29.71 in    
Wind  
Wind Speed 10 mph (SW)    
Max Wind Speed 29 mph    
Max Gust Speed 51 mph    
Visibility 8 miles    
Events Rain    
Averages and records for this station are not official NWS values.
T = Trace of Precipitation, MM = Missing Value Source: NWS Daily Summary

Daily Weather History Graph

Daily Weather History Graph

Search for Another Location

Airport or City:

Trip Planner

Search our weather history database for the weather conditions in past years. The results will help you decide how hot, cold, wet, or windy it might be!

Date:

Astronomy

Jan. 30, 2013 Rise Set
Actual Time 7:35 AM EST 6:02 PM EST
Civil Twilight 7:09 AM EST 6:28 PM EST
Nautical Twilight 6:38 AM EST 6:59 PM EST
Astronomical Twilight 6:08 AM EST 7:29 PM EST
Moon 9:48 PM EST (1/30) 9:13 AM EST (1/30)
Length of Visible Light 11h 19m
Length of Day
10h 26m
Waning Gibbous, 88% of the Moon is Illuminated
Jan 30
Waning Gibbous
Feb 3
Last Quarter
Feb 10
New
Feb 17
First Quarter
Feb 25
Full

Hourly Weather History & Observations

Time (EST) Temp. Windchill Dew Point Humidity Pressure Visibility Wind Dir Wind Speed Gust Speed Precip Events Conditions
12:15 AM 64.2 °F - 57.6 °F 79% 29.95 in 10.0 mi South 5.8 mph - N/A   Overcast
12:35 AM 64.8 °F - 57.4 °F 77% 29.95 in 10.0 mi SW 13.8 mph 21.9 mph N/A   Overcast
12:55 AM 64.6 °F - 56.5 °F 75% 29.93 in 10.0 mi South 9.2 mph 20.7 mph N/A   Light Drizzle
1:15 AM 64.4 °F - 55.8 °F 73% 29.92 in 10.0 mi South 11.5 mph 25.3 mph N/A   Overcast
1:35 AM 64.0 °F - 54.9 °F 72% 29.91 in 10.0 mi SSW 8.1 mph 27.6 mph N/A   Mostly Cloudy
1:55 AM 63.5 °F - 54.9 °F 73% 29.90 in 10.0 mi SSW 11.5 mph 20.7 mph N/A   Mostly Cloudy
2:15 AM 63.7 °F - 55.6 °F 75% 29.89 in 10.0 mi SSW 12.7 mph 23.0 mph N/A   Overcast
2:35 AM 64.0 °F - 56.1 °F 75% 29.89 in 10.0 mi SW 12.7 mph 24.2 mph N/A   Overcast
2:55 AM 64.4 °F - 57.2 °F 77% 29.88 in 10.0 mi SW 18.4 mph 28.8 mph N/A Rain Rain
3:15 AM 63.1 °F - 58.3 °F 84% 29.87 in 5.0 mi SW 13.8 mph 24.2 mph 0.03 in Rain Rain
3:35 AM 63.5 °F - 58.1 °F 83% 29.87 in 10.0 mi SW 13.8 mph 27.6 mph 0.04 in Rain Light Rain
3:55 AM 63.7 °F - 58.1 °F 82% 29.86 in 10.0 mi South 11.5 mph 23.0 mph 0.04 in   Light Drizzle
4:15 AM 63.3 °F - 57.6 °F 81% 29.86 in 10.0 mi South 10.4 mph 19.6 mph N/A   Overcast
4:35 AM 63.0 °F - 57.6 °F 82% 29.84 in 10.0 mi South 8.1 mph - N/A Rain Rain
4:55 AM 62.6 °F - 57.9 °F 85% 29.83 in 10.0 mi SSW 8.1 mph 20.7 mph N/A   Drizzle
5:15 AM 63.0 °F - 57.7 °F 83% 29.83 in 10.0 mi South 12.7 mph 19.6 mph N/A   Light Drizzle
5:35 AM 63.0 °F - 57.6 °F 82% 29.80 in 10.0 mi South 5.8 mph 19.6 mph N/A   Overcast
5:55 AM 63.5 °F - 57.6 °F 81% 29.79 in 10.0 mi SSW 12.7 mph 17.3 mph N/A   Overcast
6:15 AM 62.2 °F - 58.1 °F 86% 29.79 in 5.0 mi SW 6.9 mph - 0.04 in Rain Heavy Rain
6:35 AM 61.2 °F - 57.9 °F 89% 29.78 in 4.0 mi SW 6.9 mph - 0.22 in Rain Rain
6:55 AM 62.4 °F - 57.7 °F 85% 29.77 in 10.0 mi SSW 9.2 mph - 0.22 in   Overcast
7:15 AM 63.0 °F - 58.1 °F 84% 29.75 in 10.0 mi South 11.5 mph 23.0 mph 0.01 in   Overcast
7:35 AM 63.0 °F - 58.6 °F 86% 29.75 in 10.0 mi SSW 6.9 mph 17.3 mph 0.02 in Rain Light Rain
7:55 AM 63.1 °F - 59.0 °F 86% 29.75 in 10.0 mi SW 17.3 mph 25.3 mph 0.02 in Rain Light Rain
8:15 AM 63.7 °F - 59.2 °F 85% 29.75 in 10.0 mi SW 10.4 mph 24.2 mph 0.01 in Rain Rain
8:35 AM 63.9 °F - 59.4 °F 85% 29.74 in 5.0 mi SE 4.6 mph 19.6 mph 0.10 in Rain Rain
8:55 AM 64.8 °F - 59.4 °F 83% 29.74 in 10.0 mi South 10.4 mph - 0.10 in Rain Light Rain
9:15 AM 64.9 °F - 59.2 °F 82% 29.74 in 10.0 mi SW 9.2 mph 20.7 mph N/A Rain Rain
9:35 AM 64.4 °F - 59.7 °F 85% 29.73 in 10.0 mi SW 6.9 mph - 0.01 in Rain Light Rain
9:55 AM 64.2 °F - 60.1 °F 86% 29.73 in 10.0 mi WSW 9.2 mph 16.1 mph 0.01 in Rain Light Rain
10:15 AM 65.8 °F - 59.9 °F 81% 29.72 in 10.0 mi SW 10.4 mph 20.7 mph N/A   Overcast
10:35 AM 66.4 °F - 60.3 °F 81% 29.71 in 10.0 mi South 10.4 mph 20.7 mph N/A   Overcast
10:55 AM 65.3 °F - 59.9 °F 83% 29.70 in 4.0 mi SW 10.4 mph 21.9 mph 0.02 in Rain Rain
11:15 AM 64.6 °F - 60.1 °F 85% 29.68 in 7.0 mi SW 9.2 mph 18.4 mph 0.03 in Rain Heavy Rain
11:35 AM 64.6 °F - 59.7 °F 84% 29.67 in 7.0 mi SW 12.7 mph 26.5 mph 0.07 in Rain Light Rain
11:55 AM 63.1 °F - 60.3 °F 90% 29.66 in 2.5 mi WSW 11.5 mph 23.0 mph 0.30 in Rain Heavy Rain
12:15 PM 64.8 °F - 59.7 °F 84% 29.63 in 10.0 mi SSW 16.1 mph 21.9 mph N/A Rain Light Rain
12:35 PM 65.5 °F - 59.5 °F 81% 29.58 in 7.0 mi SSE 15.0 mph 25.3 mph 0.01 in Rain Rain
12:55 PM 59.0 °F - 56.5 °F 91% 29.65 in 1.2 mi West 28.8 mph 50.6 mph 0.31 in Rain Heavy Rain
1:15 PM 57.7 °F - 56.3 °F 95% 29.66 in 4.0 mi West 13.8 mph 24.2 mph 0.10 in Rain Rain
1:35 PM 57.7 °F - 56.1 °F 94% 29.63 in 7.0 mi WSW 9.2 mph - 0.15 in Rain Rain
1:55 PM 57.2 °F - 56.3 °F 97% 29.63 in 3.0 mi SW 4.6 mph - 0.21 in Rain Heavy Rain
2:15 PM 57.2 °F - 56.5 °F 97% 29.60 in 2.0 mi Calm Calm - 0.06 in Rain Heavy Rain
2:35 PM 57.0 °F - 56.3 °F 97% 29.59 in 2.0 mi Calm Calm - 0.10 in Rain Heavy Rain
2:55 PM 57.2 °F - 55.8 °F 95% 29.58 in 2.0 mi SW 6.9 mph - 0.25 in Rain Heavy Rain
3:15 PM 57.2 °F - 55.0 °F 92% 29.58 in 1.2 mi SSW 8.1 mph 18.4 mph 0.04 in Rain Rain
3:35 PM 56.8 °F - 54.9 °F 93% 29.58 in 4.0 mi SW 6.9 mph 17.3 mph 0.05 in Rain Heavy Rain
3:55 PM 56.5 °F - 54.5 °F 93% 29.56 in 5.0 mi SW 9.2 mph - 0.09 in Rain Rain
4:15 PM 56.5 °F - 53.6 °F 90% 29.57 in 5.0 mi SW 9.2 mph 19.6 mph 0.02 in Rain Rain
4:35 PM 56.3 °F - 53.6 °F 91% 29.55 in 5.0 mi SW 8.1 mph - 0.09 in Rain Rain
4:55 PM 55.6 °F - 53.4 °F 92% 29.57 in 4.0 mi WSW 18.4 mph - 0.13 in Rain Heavy Rain
5:15 PM 50.7 °F - 45.9 °F 83% 29.60 in 5.0 mi WSW 17.3 mph 27.6 mph 0.01 in Rain Rain
5:35 PM 48.6 °F - 44.6 °F 86% 29.62 in 7.0 mi SW 11.5 mph 16.1 mph 0.05 in Rain Rain
5:55 PM 47.1 °F - 43.7 °F 88% 29.63 in 7.0 mi SSW 9.2 mph - 0.06 in Rain Rain
6:15 PM 46.2 °F 41.7 °F 43.2 °F 89% 29.62 in 10.0 mi South 9.2 mph - 0.02 in Rain Rain
6:35 PM 45.5 °F 43.2 °F 42.3 °F 88% 29.62 in 10.0 mi South 4.6 mph - 0.02 in Rain Rain
7:15 PM 45.0 °F - 43.2 °F 93% 29.61 in 10.0 mi Calm Calm - N/A Rain Light Rain
7:35 PM 45.1 °F - 43.0 °F 92% 29.60 in 10.0 mi Calm Calm - 0.01 in   Overcast
7:55 PM 45.0 °F 39.7 °F 43.7 °F 95% 29.62 in 7.0 mi South 10.4 mph 16.1 mph 0.04 in Rain Rain
8:15 PM 45.1 °F 43.7 °F 40.8 °F 85% 29.62 in 10.0 mi SW 3.5 mph - N/A Rain Light Rain
8:35 PM 44.8 °F - 41.5 °F 88% 29.62 in 10.0 mi Calm Calm - N/A Rain Light Rain
8:55 PM 44.6 °F 41.4 °F 40.5 °F 85% 29.62 in 10.0 mi SW 5.8 mph - N/A Rain Light Rain
9:15 PM 44.2 °F 41.8 °F 39.7 °F 84% 29.62 in 10.0 mi WSW 4.6 mph - N/A   Overcast
9:35 PM 43.9 °F 41.3 °F 41.0 °F 90% 29.59 in 7.0 mi West 4.6 mph - N/A Rain Light Rain
9:55 PM 43.7 °F 39.7 °F 41.5 °F 92% 29.62 in 10.0 mi WSW 6.9 mph - N/A Rain Rain
10:15 PM 43.7 °F 39.1 °F 41.5 °F 92% 29.62 in 10.0 mi WSW 8.1 mph - N/A   Drizzle
10:35 PM 43.9 °F 36.8 °F 41.0 °F 90% 29.61 in 7.0 mi WSW 15.0 mph 18.4 mph N/A   Drizzle
10:55 PM 43.7 °F 36.0 °F 40.5 °F 88% 29.64 in 5.0 mi WSW 17.3 mph 26.5 mph 0.01 in Rain Rain
11:15 PM 41.9 °F 33.1 °F 35.8 °F 79% 29.67 in 10.0 mi West 19.6 mph 29.9 mph N/A Rain Light Rain
11:35 PM 39.9 °F 31.8 °F 36.1 °F 86% 29.69 in 7.0 mi WSW 15.0 mph 21.9 mph N/A Rain Light Rain
11:55 PM 39.7 °F 31.9 °F 32.7 °F 76% 29.71 in 10.0 mi West 13.8 mph 25.3 mph N/A   Overcast